GW0293 Weather Reports


Display with metric or nautical units.
time (UTC)temp
F
wind
direction
speed
MPH
gust
MPH
rain 1hr
in
rain 24hr
in
rain mn
in
humidity
%
barometer
mb
20260507184535 51 0 0.0 0.0 0.00 0.81 0.81 98 1001.7
20260507183045 51 0 0.0 0.0 0.00 0.81 0.81 98 1001.7
20260507181543 51 0 0.0 0.0 0.00 0.81 0.81 98 1002.0
20260507180050 50 0 0.0 0.0 0.02 0.81 0.81 98 1002.0
20260507174538 49 0 0.0 0.0 0.02 0.81 0.81 98 1002.1
20260507173048 48 0 0.0 0.0 0.05 0.81 0.81 98 1001.6
20260507171544 47 0 0.0 0.0 0.07 0.81 0.81 98 1001.3
20260507170051 47 0 0.0 0.0 0.06 0.79 0.79 97 1001.9
20260507164542 49 0 0.0 0.0 0.07 0.79 0.79 98 1001.8
20260507163044 48 0 0.0 0.0 0.07 0.76 0.76 98 1002.3
20260507161550 47 0 0.0 0.0 0.08 0.74 0.74 97 1002.5
20260507160037 47 0 0.0 0.0 0.11 0.73 0.73 97 1002.7
20260507154536 47 0 0.0 0.0 0.13 0.72 0.72 97 1002.7
20260507153040 47 0 0.0 0.0 0.21 0.69 0.69 97 1003.3
20260507151535 47 0 0.0 0.0 0.24 0.66 0.66 96 1003.5
20260507150036 48 0 0.0 0.0 0.29 0.62 0.62 97 1003.5
20260507144545 50 0 0.0 0.0 0.27 0.58 0.58 97 1004.0
20260507143057 50 0 0.0 0.0 0.16 0.47 0.47 97 1004.8
20260507141541 51 0 0.0 0.0 0.12 0.42 0.42 97 1003.7
20260507140040 51 0 0.0 0.0 0.03 0.33 0.33 97 1004.5
20260507134535 50 0 0.0 0.0 0.02 0.32 0.32 97 1004.3
20260507133044 50 0 0.0 0.0 0.01 0.31 0.31 97 1004.3
20260507131548 50 0 0.0 0.0 0.00 0.30 0.30 97 1004.5
20260507130058 50 0 0.0 0.0 0.00 0.30 0.30 96 1004.7
20260507124540 51 0 0.0 0.0 0.00 0.30 0.30 97 1004.8
20260507123035 51 0 0.0 0.0 0.00 0.30 0.30 97 1005.0
20260507121546 50 0 0.0 0.0 0.00 0.30 0.30 96 1005.2
20260507120042 51 0 0.0 0.0 0.00 0.30 0.30 96 1005.3
20260507114540 51 0 0.0 0.0 0.00 0.30 0.30 96 1005.5
20260507113042 52 0 0.0 0.0 0.00 0.30 0.30 96 1005.4
20260507111536 52 0 0.0 0.0 0.00 0.30 0.30 96 1006.0
20260507110043 52 0 0.0 0.0 0.00 0.30 0.30 96 1006.0
20260507104549 52 0 0.0 0.0 0.00 0.30 0.30 96 1005.6
20260507103106 52 0 0.0 0.0 0.00 0.30 0.30 96 1006.1
20260507101539 52 0 0.0 0.0 0.00 0.30 0.30 96 1006.1
20260507100039 52 0 0.0 0.0 0.00 0.30 0.30 96 1006.0
20260507094542 51 0 0.0 0.0 0.00 0.30 0.30 96 1006.2
20260507093043 51 0 0.0 0.0 0.00 0.30 0.30 96 1006.2
20260507091544 51 0 0.0 0.0 0.03 0.30 0.30 96 1006.3
20260507090036 51 0 0.0 0.0 0.13 0.30 0.30 96 1006.6
20260507084543 52 0 0.0 0.0 0.15 0.30 0.30 95 1006.7
20260507083044 53 0 0.0 0.0 0.18 0.30 0.30 95 1007.0
20260507081541 53 0 0.0 0.0 0.19 0.26 0.26 95 1007.1
20260507080049 52 0 0.0 0.0 0.12 0.17 0.17 95 1007.3
20260507074537 52 0 0.0 0.0 0.13 0.15 0.15 95 1007.5
20260507073040 52 0 0.0 0.0 0.11 0.12 0.12 94 1007.8
20260507071536 52 0 0.0 0.0 0.07 0.07 0.07 93 1007.9
20260507070051 52 0 0.0 0.0 0.05 0.05 0.05 92 1008.2
20260507064541 53 0 0.0 0.0 0.02 0.02 0.02 91 1008.5
20260507063042 53 0 0.0 0.0 0.01 0.01 0.01 89 1009.0
20260507061540 53 0 0.0 0.0 0.00 0.00 0.00 88 1009.0
20260507060035 52 0 0.0 0.0 0.00 0.00 0.00 88 1009.2
20260507054547 52 0 0.0 0.0 0.00 0.00 0.00 88 1009.7
20260507053035 51 0 0.0 0.0 0.00 0.00 0.00 89 1009.9
20260507051537 51 0 0.0 0.0 0.00 0.00 0.00 88 1010.0
20260507050049 51 0 0.0 0.0 0.00 0.00 0.00 89 1011.0
20260507044546 51 0 0.0 0.0 0.00 0.00 0.00 89 1011.2
20260507043035 51 0 0.0 0.0 0.00 0.00 0.00 88 1011.4
20260507041537 51 0 0.0 0.0 0.00 0.00 0.00 88 1011.8
20260507040044 51 0 0.0 0.0 0.00 0.00 0.00 88 1012.3
20260507034543 51 0 0.0 0.0 0.00 0.00 0.00 88 1012.2
20260507033039 52 0 0.0 0.0 0.00 0.00 0.00 88 1012.5
20260507031539 52 0 0.0 0.0 0.00 0.00 0.00 88 1012.7
20260507030035 52 0 0.0 0.0 0.00 0.00 0.00 88 1012.9
20260507024540 52 0 0.0 0.0 0.00 0.00 0.00 89 1013.1
20260507023035 51 0 0.0 0.0 0.00 0.00 0.00 90 1013.4
20260507021538 50 0 0.0 0.0 0.00 0.00 0.00 89 1013.4
20260507020104 51 0 0.0 0.0 0.00 0.00 0.00 89 1013.6
20260507014547 52 0 0.0 0.0 0.00 0.00 0.00 88 1014.0
20260507013046 52 0 0.0 0.0 0.00 0.00 0.00 90 1014.3
20260507011542 51 0 0.0 0.0 0.00 0.00 0.00 91 1014.6
20260507010043 50 0 0.0 0.0 0.00 0.00 0.00 89 1014.7
20260507004544 50 0 0.0 0.0 0.00 0.00 0.00 89 1014.8
20260507003043 50 0 0.0 0.0 0.00 0.00 0.00 89 1015.0
20260507001555 51 0 0.0 0.0 0.00 0.00 0.00 88 1014.9
20260507000043 52 0 0.0 0.0 0.00 0.00 0.00 87 1014.9
20260506234540 54 0 0.0 0.0 0.00 0.00 0.00 83 1015.0
20260506233047 57 0 0.0 0.0 0.00 0.00 0.00 85 1014.9
20260506231542 55 0 0.0 0.0 0.00 0.00 0.00 84 1014.8
20260506230042 58 0 0.0 0.0 0.00 0.00 0.00 79 1014.6
20260506224536 61 0 0.0 0.0 0.00 0.00 0.00 80 1014.7
20260506223038 62 0 0.0 0.0 0.00 0.00 0.00 80 1014.8
20260506221552 62 0 0.0 0.0 0.00 0.00 0.00 79 1015.0
20260506220047 63 0 0.0 0.0 0.00 0.00 0.00 78 1015.1
20260506214539 63 0 0.0 0.0 0.00 0.00 0.00 78 1014.9
20260506213043 64 0 0.0 0.0 0.00 0.00 0.00 77 1014.8
20260506211551 64 0 0.0 0.0 0.00 0.00 0.00 77 1014.7
20260506210047 64 0 0.0 0.0 0.00 0.00 0.00 77 1014.8
20260506204541 64 0 0.0 0.0 0.00 0.00 0.00 77 1014.8
20260506203035 65 0 0.0 0.0 0.00 0.00 0.00 75 1014.5
20260506201539 66 0 0.0 0.0 0.00 0.00 0.00 74 1014.3
20260506200045 66 0 0.0 0.0 0.00 0.00 0.00 73 1014.4
20260506194544 67 0 0.0 0.0 0.00 0.00 0.00 72 1014.4
20260506193049 68 0 0.0 0.0 0.00 0.00 0.00 70 1014.6
20260506191537 70 0 0.0 0.0 0.00 0.00 0.00 69 1014.8
20260506190035 69 0 0.0 0.0 0.00 0.00 0.00 69 1015.0